Location: Bu�n Treun
(12.1333°N, 108.3167°E)
Time: 00:15:36
(UTC+00:00)

GPS 2-17 Rocket1 - Pass Details

Date: 13 July 2020
Orbit: 571 x 659 km, 20.3° (Epoch: 03 August)

Event Time Altitude Azimuth Distance (km) Brightness Sun altitude
Exits shadow 21:15:42 27° 211° (SSW) 1,244 4.1 -17.2°
Maximum altitude 21:17:46 42° 159° (SSE) 921 3.8 -16.7°
Drops below altitude 10° 21:22:18 10° 89° (E) 2,028 6.7 -15.8°
Sets 21:24:44 0° 82° (E) 2,925 8.0 -15.2°
